Regional Weather Roundup
Issued by NWS Charleston, WV

Home | Current Version | Previous Version | Graphics & Text | Print | Product List | Glossary On
Versions: 1 2 3 4 5 6 7 8 9 10 11 12 13 14 15 16 17 18 19 20 21 22 23 24 25 26 27 28 29 30 31 32 33 34 35 36 37 38 39 40 41 42 43 44 45 46 47 48 49 50
814
ASUS41 KRLX 211610
RWRRLX
West Virginia Regional Weather Roundup
National Weather Service Charleston WV
1100 AM EST SAT JAN 21 2017

Note: "fair" indicates few or no clouds below 12,000 feet with no
significant weather and/or obstructions to visibility.

WVZ003-211700-
Northern Panhandle of West Virginia

CITY           SKY/WX    TMP DP  RH WIND       PRES   REMARKS
WHEELING       SUNNY     58  48  69 SW12      29.77S
$$

WVZ009-211700-
Northwest West Virginia

CITY           SKY/WX    TMP DP  RH WIND       PRES   REMARKS
PARKERSBURG    SUNNY     60  50  69 S8        29.81R
$$

WVZ006-211700-
Western West Virginia

CITY           SKY/WX    TMP DP  RH WIND       PRES   REMARKS
HUNTINGTON     CLOUDY    58  50  75 SW5       29.78F
$$

WVZ015-211700-
West Central West Virginia

CITY           SKY/WX    TMP DP  RH WIND       PRES   REMARKS
CHARLESTON     PTSUNNY   61  50  67 S5        29.80S
$$

WVZ022-031-211700-
North Central West Virginia

CITY           SKY/WX    TMP DP  RH WIND       PRES   REMARKS
CLARKSBURG     SUNNY     59  50  72 SW6       29.81R
MORGANTOWN     SUNNY     60  49  66 S5        29.80F
$$

WVZ025-035-042-045-211700-
Southern West Virginia

CITY           SKY/WX    TMP DP  RH WIND       PRES   REMARKS
BECKLEY        PTSUNNY   57  49  74 SE7       29.86S
LOGAN            N/A     59  50  72 CALM      29.82F
BLUEFIELD      CLOUDY    56  46  69 S7        29.87F
LEWISBURG      FOG       43  42  99 CALM      29.89F VSB 1/4
$$

WVZ047-211700-
Northern Mountains of West Virginia

CITY           SKY/WX    TMP DP  RH WIND       PRES   REMARKS
ELKINS         PTSUNNY   47  43  86 CALM      29.85F FOG
$$

WVZ052-211700-
Eastern Panhandle of West Virginia

CITY           SKY/WX    TMP DP  RH WIND       PRES   REMARKS
MARTINSBURG    FOG       42  41  96 CALM      29.88F VSB 1/2
PETERSBURG     CLOUDY    42  42  99 CALM      29.86F FOG
$$




USA.gov is the U.S. government's official web portal to all federal, state and local government web resources and services.